Regional Weather Roundup
Issued by NWS

Home | Current Version | Previous Version | Graphics & Text | Print | Product List | Glossary On
Versions: 1 2 3 4 5 6 7 8 9 10 11 12 13 14 15 16 17 18 19 20 21 22 23 24 25 26 27 28 29 30 31 32 33 34 35 36 37 38 39 40 41 42 43 44 45 46 47 48 49 50
000
ASUS43 KMKX 260859
RWRWI

WISCONSIN REGIONAL WEATHER ROUNDUP
NATIONAL WEATHER SERVICE MILWAUKEE/SULLIVAN WI
400 AM CDT THU APR 26 2018

NOTE: "FAIR" INDICATES FEW OR NO CLOUDS BELOW 12,000 FEET WITH NO
SIGNIFICANT WEATHER AND/OR OBSTRUCTIONS TO VISIBILITY.

WIZ001-002-006>008-014>016-023>028-261000-
NORTHWEST WISCONSIN

CITY           SKY/WX    TMP DP  RH WIND       PRES   REMARKS
SUPERIOR ARPT  FAIR      40  26  56 SW7       29.84S WCI  35
ASHLAND        FAIR      37  23  56 S7        29.85F WCI  32
HAYWARD        FAIR      30  24  78 CALM      29.87F
SIREN          FAIR      32  25  74 CALM      29.87F
CUMBERLAND     FAIR      32  27  80 CALM      29.88F
RICE LAKE      FAIR      32  30  93 CALM      29.90F
CHETEK         FAIR      30  27  88 CALM      29.90S
LADYSMITH      FAIR      33  28  83 CALM      29.91S
EAU CLAIRE     NOT AVBL
MENOMONIE      FAIR      36  32  85 CALM      29.91S
NEW RICHMOND   FAIR      36  29  75 S3        29.89F
OSCEOLA        FAIR      36  29  78 S3        29.91F
$$

WIZ003>005-009-010-017-018-261000-
NORTH CENTRAL WISCONSIN

CITY           SKY/WX    TMP DP  RH WIND       PRES   REMARKS
MANITOWISH WTR FAIR      26  24  91 CALM      29.88S
ARBOR VITAE    FAIR      32  26  78 CALM      29.88S
WOODRUFF       FAIR      32  26  78 CALM      29.88S
RHINELANDER    FAIR      28  22  78 CALM      29.89S
EAGLE RIVER    FAIR      26  22  84 CALM      29.87F
LAND O LAKES   FAIR      26  24  91 CALM      29.89S
PHILLIPS       FAIR      29  26  90 CALM      29.88S
TOMAHAWK       FAIR      27  23  86 CALM      29.90S
MEDFORD        FAIR      35  27  72 S3        29.89F
MERRILL        FAIR      27  24  91 CALM      29.92S
$$

WIZ029-030-035-036-043>047-261000-
CENTRAL WISCONSIN

CITY           SKY/WX    TMP DP  RH WIND       PRES   REMARKS
WAUSAU         FAIR      32  27  81 CALM      29.90S
MOSINEE        FAIR      36  28  75 CALM      29.92S
MARSHFIELD     FAIR      36  29  75 S5        29.90F WCI  32
STEVENS POINT  FAIR      29  27  92 CALM      29.93S
WAUPACA        FAIR      37  32  83 CALM      29.93S
WAUTOMA        FAIR      28  26  92 CALM      29.94F
WISC RAPIDS    FAIR      31  27  85 CALM      29.93S
CAMP DOUGLAS   FAIR      29  28  97 CALM      29.92F
$$

WIZ011>013-019>022-031-037>040-048>050-261000-
NORTHEAST WISCONSIN

CITY           SKY/WX    TMP DP  RH WIND       PRES   REMARKS
ANTIGO         FAIR      31  28  90 CALM      29.91S
SHAWANO        FAIR      33  31  92 CALM      29.92F
OCONTO         FAIR      28  26  91 CALM      29.93S
STURGEON BAY   FAIR      35  26  69 S7        29.93F WCI  29
GREEN BAY      FAIR      36  31  82 CALM      29.93S
MANITOWOC      FAIR      33  28  81 CALM      29.95S
APPLETON       FAIR      36  30  80 SW5       29.92S WCI  32
CLINTONVILLE   FAIR      33  30  86 CALM      29.92F
OSHKOSH        FAIR      38  31  76 SW7       29.93S WCI  33
$$

WIZ032>034-041-042-053>061-261000-
SOUTHWEST WISCONSIN

CITY           SKY/WX    TMP DP  RH WIND       PRES   REMARKS
LA CROSSE      FAIR      41  34  76 SE6       29.92F
SPARTA         FAIR      28  26  89 CALM      29.94S
VIROQUA        FAIR      46  28  50 SW3       29.93S
BOSCOBEL       FAIR      33  29  85 CALM      29.95S
PRAIRIE DU CHI FAIR      37  28  71 E5        29.94F WCI  33
PLATTEVILLE    FAIR      39  32  78 SE5       29.96R
$$

WIZ056-057-062-063-064-067-068-261000-
SOUTH CENTRAL WISCONSIN

CITY           SKY/WX    TMP DP  RH WIND       PRES   REMARKS
REEDSBURG      FAIR      35  32  90 CALM      29.94S
BARABOO/DELLS  FAIR      38  31  74 SW5       29.94S WCI  35
LONE ROCK      NOT AVBL
MINERAL POINT  FAIR      37  34  87 SE5       29.95R WCI  34
MADISON        FAIR      39  31  72 CALM      29.96R
MIDDLETON      FAIR      40  32  73 CALM      29.96S
WATERTOWN      FAIR      34  31  89 CALM      29.95S
MONROE         FAIR      34  30  86 S9        29.95S WCI  26
JANESVILLE     FAIR      36  30  80 CALM      29.96S
$$

WIZ051-052-058>065-066-070>072-261000-
SOUTHEAST WISCONSIN

CITY           SKY/WX    TMP DP  RH WIND       PRES   REMARKS
MILWAUKEE      FAIR      38  31  76 CALM      29.96S
WAUKESHA       FAIR      32  27  80 CALM      29.96S
MILWAUKEE/TIMM FAIR      34  27  75 CALM      29.97R
RACINE         FAIR      34  28  79 W5        29.98R WCI  30
BURLINGTON     FAIR      28  26  91 CALM      29.96S
KENOSHA        FAIR      33  28  81 W5        29.96S WCI  29
FOND DU LAC    FAIR      37  30  75 S6        29.94S WCI  32
SHEBOYGAN      FAIR      32  28  85 SW3       29.94S
WEST BEND      FAIR      32  30  93 CALM      29.95S
JUNEAU         FAIR      34  30  85 CALM      29.96F
$$

LSZ147-162-261000-
LAKE SUPERIOR

STATION/POSITION TIME  TEMP    WIND        PRES    WAVE
                       AIR SEA DIR/SP/G            HT/PER
                 (UTC) (F)     (DEG/KT/KT) (MB)    (FT/S)
DEVILS ISLAND    0800   41     230/  9/  9 1011.0F
SAXON HARBOR     0840   35     190/  5/  8 1010.5F
$$

LMZ867-665-643>646-261000-
LAKE MICHIGAN

STATION/POSITION TIME  TEMP    WIND        PRES    WAVE
                       AIR SEA DIR/SP/G            HT/PER
                 (UTC) (F)     (DEG/KT/KT) (MB)    (FT/S)
NORTHPORT PIER   0840   31                 1013.2F
KEWAUNEE LAKESHO 0830   36     270/  3/  4 1013.3S
SHEBOYGAN LAKESH 0800   38     240/  8/  9 1014.6F
PORT WASHINGTON  0830   37     260/  6/  7 1015.6S
MILWAUKEE LAKESH 0830   40     270/  4/  5   N/A
KENOSHA   LAKESH 0800   38                 1014.9
$$

TC  - TEMPERATURE IN CELSIUS
VSB - VISIBILITY IN STATUTE MILES
WCI - WIND CHILL INDEX
HX  - HEAT INDEX




USA.gov is the U.S. government's official web portal to all federal, state and local government web resources and services.